Regional Weather Roundup
Issued by NWS New Orleans/Baton Rouge, LA

Home | Current Version | Previous Version | Graphics & Text | Print | Product List | Glossary On
Versions: 1 2 3 4 5 6 7 8 9 10 11 12 13 14 15 16 17 18 19 20 21 22 23 24 25 26 27 28 29 30 31 32 33 34 35 36 37 38 39 40 41 42 43 44 45 46 47 48 49 50
266
ASUS44 KLIX 311401
RWRLIX
NEW ORLEANS REGIONAL WEATHER ROUNDUP
NATIONAL WEATHER SERVICE NEW ORLEANS LA
900 AM CDT THU JUL 31 2014

NOTE: "FAIR" INDICATES FEW OR NO CLOUDS BELOW 12,000 FEET WITH NO
      SIGNIFICANT WEATHER AND/OR OBSTRUCTIONS TO VISIBILITY.
      SKY/WX - SKY CONDITION AND SIGNIFICANT WEATHER.
      TMP - AIR TEMPERATURE.     DP    - DEWPOINT TEMPERATURE.
      RH  - RELATIVE HUMIDITY.   PRES  - PRESSURE.
      HI  - HEAT INDEX.          WCI   - WIND CHILL INDEX.

*  THESE STATIONS ARE NOT NWS OR FAA STATIONS AND ARE NOT UNDER
   NWS QUALITY CONTROL.

LAZ038-040-048-061>063-065>067-069-311500-
SOUTHEAST LOUISIANA

CITY           SKY/WX    TMP DP  RH WIND       PRES   REMARKS
N.O. AUDUBON   NOT AVBL
N.O. INTL ARPT PTSUNNY   85  69  58 NE9       30.04R
N.O. LAKEFRONT PTSUNNY   80  66  62 E10       30.05R
N.O. DOWNTOWN*   N/A     79  63  57 NE6       30.05S
SLIDELL        PTSUNNY   76  64  66 NE6       30.05R
BATON ROUGE    CLOUDY    73  64  73 NE6       30.05R
BOOTHVILLE     SUNNY     82  65  56 NE3       30.05R
BELLE CHASSE   CLOUDY    79  70  74 NE6       30.04R
BOGALUSA*      PTSUNNY   74  64  71 CALM      30.08S
GALLIANO*      NOT AVBL
NEW ROADS*       N/A     75  64  67 E3        30.05F
GONZALES*        N/A     75  71  87 CALM      30.04S
HAMMOND*       PTSUNNY   75  63  64 CALM      30.07S
HOUMA*         CLOUDY    79  66  65 CALM      30.04R
PORT FOURCHON* MOSUNNY   82  64  54 E7        30.05R

$$

MSZ070-080>082-311500-
SOUTHERN MISSISSIPPI

CITY           SKY/WX    TMP DP  RH WIND       PRES   REMARKS
MCCOMB         CLOUDY    73  61  65 N5        30.08R
GULFPORT       MOSUNNY   81  62  52 NE3       30.05R
BILOXI         MOSUNNY   76  64  65 NE3       30.05R
PASCAGOULA     MOSUNNY   74  64  71 N5        30.05R
STENNIS ARPT*  PTSUNNY  N/A N/A N/A NE5       30.06R

$$

COASTAL OBSERVATIONS
LAKE AND NEARSHORE STATIONS

STATION/POSITION TIME  TEMP    WIND        PRES    WAVE
                       AIR SEA DIR/SP/G            HT/PER
                 (UTC) (F)     (DEG/KT/KT) (MB)    (FT/S)
PASCAGOULA       1300   74      30/  5/  7 1016.6
WAVELAND YACHT   1300   75      50/  7/  8 1016.8
GRAND ISLE       1300   83 86  100/  5/  8 1017.6
SOUTHWEST PASS   1300   84 84   40/  6/  7 1017.3
NEW CANAL        1300   79 82   80/  6/  9 1017.8
SHELL BEACH      1300   80 80  250/  2/  3 1017.1

OFFSHORE STATIONS

STATION/POSITION TIME  TEMP    WIND        PRES    WAVE
                       AIR SEA DIR/SP/G            HT/PER
                 (UTC) (F)     (DEG/KT/KT) (MB)    (FT/S)
64 S DAUPHIN ISL 1350   82 85  350/  4/  6 1017.0

$$




USA.gov is the U.S. government's official web portal to all federal, state and local government web resources and services.